Hourly Data Report for September 25, 2017

All times are specified in Local Standard Time (LST). Add 1 hour to adjust for Daylight Saving Time where and when it is observed.

CHARLOTTETOWN A
PRINCE EDWARD ISLAND

46°17'21.000" N
63°07'09.000" W
48.50 m
8300301
71706
YYG

Download Data

Hourly Data (September 2017)
Hourly Data Report for September 25, 2017
Temp Definition
°C
Dew Point Temp Definition
°C
Rel Hum Definition
%
Wind Dir Definition
10's deg

Wind Spd Definition
km/h
Visibility Definition
km
Stn Press Definition
kPa
Hmdx Definition


Wind Chill Definition


Weather Definition


TIME
00:00 Legend Double Dagger 15.3 13.9 91 31 8 24.1 101.10     LegendNANA
01:00 Legend Double Dagger 14.5 13.6 94 31 7 24.1 101.19     LegendNANA
02:00 Legend Double Dagger 14.5 13.4 93 35 3 24.1 101.16     Mainly Clear
03:00 Legend Double Dagger 13.6 12.5 93 35 10 24.1 101.22     LegendNANA
04:00 Legend Double Dagger 13.3 12.0 92 36 7 24.1 101.25     LegendNANA
05:00 Legend Double Dagger 12.3 11.3 94 35 6 24.1 101.28     Mainly Clear
06:00 Legend Double Dagger 12.0 11.1 94 1 7 24.1 101.31     LegendNANA
07:00 Legend Double Dagger 12.6 11.7 94 35 5 24.1 101.37     LegendNANA
08:00 Legend Double Dagger 14.6 12.5 87 36 7 24.1 101.42     Mostly Cloudy
09:00 Legend Double Dagger 16.4 12.2 76 2 9 24.1 101.42     LegendNANA
10:00 Legend Double Dagger 17.8 11.3 66 0 1 24.1 101.41     LegendNANA
11:00 Legend Double Dagger 18.8 11.3 61 19 7 24.1 101.42     Mostly Cloudy
12:00 Legend Double Dagger 19.9 11.3 57 22 10 24.1 101.39     LegendNANA
13:00 Legend Double Dagger 20.3 11.6 57 19 11 24.1 101.34     LegendNANA
14:00 Legend Double Dagger 20.4 12.0 58 18 14 24.1 101.26     Mostly Cloudy
15:00 Legend Double Dagger 20.0 11.2 57 18 18 24.1 101.21     LegendNANA
16:00 Legend Double Dagger 19.9 11.0 56 17 13 24.1 101.16     LegendNANA
17:00 Legend Double Dagger 19.4 11.7 61 16 15 24.1 101.10     Mainly Clear
18:00 Legend Double Dagger 17.7 12.7 72 18 15 24.1 101.08     LegendNANA
19:00 Legend Double Dagger 18.0 14.4 79 19 11 24.1 101.06     LegendNANA
20:00 Legend Double Dagger 18.1 15.0 82 19 15 24.1 101.03     Clear
21:00 Legend Double Dagger 18.6 16.4 87 20 14 24.1 100.96     LegendNANA
22:00 Legend Double Dagger 19.0 16.7 87 20 16 24.1 100.95     LegendNANA
23:00 Legend Double Dagger 19.8 17.4 86 22 18 24.1 100.91     Clear

Notes on Data Quality.

Legend

  • E = Estimated
  • M = Missing
  • NA = Not Available
  • ‡ = Partner data that is not subject to review by the National Climate Archives
Date modified: